Starlink 3989

operational
NORAD ID: 52630 Int'l Des: 2022-052 Owner: SPXS Country: US Constellation: starlink
LEOCIRCULAR

Starlink 3989について

説明を読み込み中...

リアルタイム位置

3D地球を読み込み中...

次回通過

高度履歴

Altitude vs Time

uPlot chart will show altitude changes over time

軌道要素

1 52630U 22052AJ 26062.03272119 .00000014 00000-0 18986-4 0 9999
2 52630 53.2181 299.0070 0001442 87.9121 272.2036 15.08840222209986
Epoch: Mar 3, 2026 • Age: 14 hours

現在のステータス

高度 544.9 km
速度 7.60 km/s
衛星直下点 51.38°N, 37.25°E
打ち上げ日 May 14, 2022
運用期間 3.8 years
タイプ internet

技術仕様

分類 Payload
質量 297.00 kg
乾燥質量 275.00 kg
総質量 297.00 kg
長さ 0.20 m
直径 2.80 m
スパン 9.00 m
形状 Box + pan
製造者 SPXS
バスタイプ Starlink
フェーズステータス In Orbit
所有者/国 SPXS/US

大規模コンステレーション

Loading constellations...